,,,PA_Meas_PMT16A,,PR_Meas_QMR101_102,,RH_Meas_QMH101,,SR_Meas_QMS101,,TA_Meas_QMH101,,GenWind,,GenWind,
date,time,status,PA,status,PR,status,RH,status,SR,status,TA,status,DirAvg,status,SpdAvg,
2014-08-28, 00:00:05,VALID,1009.88,VALID,0,INVALID,137.126,VALID,0,VALID,24.5301,VALID,303,VALID,0,
2014-08-28, 00:01:05,VALID,1009.9,VALID,0,INVALID,137.073,VALID,0,VALID,24.5515,VALID,303,VALID,0,
2014-08-28, 00:02:05,VALID,1009.9,VALID,0,INVALID,136.997,VALID,0,VALID,24.532,VALID,303,VALID,0,
2014-08-28, 00:03:05,VALID,1009.84,VALID,0,INVALID,136.959,VALID,0,VALID,24.532,VALID,303,VALID,0,
2014-08-28, 00:04:05,VALID,1009.87,VALID,0,INVALID,136.89,VALID,0,VALID,24.5301,VALID,303,VALID,0,
2014-08-28, 00:05:05,VALID,1009.84,VALID,0,INVALID,136.875,VALID,0.112112,VALID,24.532,VALID,303,VALID,0,
2014-08-28, 00:06:05,VALID,1009.84,VALID,0,INVALID,136.806,VALID,0,VALID,24.532,VALID,303,VALID,0.136328,
2014-08-28, 00:07:05,VALID,1009.82,VALID,0,INVALID,136.768,VALID,0.112112,VALID,24.532,VALID,303,VALID,0.263672,
2014-08-28, 00:08:05,VALID,1009.79,VALID,0,INVALID,136.768,VALID,0,VALID,24.532,VALID,303,VALID,0.127734,
2014-08-28, 00:09:05,VALID,1009.78,VALID,0,INVALID,136.76,VALID,0,VALID,24.4717,VALID,303,VALID,0,
2014-08-28, 00:10:05,VALID,1009.76,VALID,0,INVALID,136.76,VALID,0,VALID,24.4911,VALID,303,VALID,0,
2014-08-28, 00:11:05,VALID,1009.77,VALID,0,INVALID,136.76,VALID,0,VALID,24.4717,VALID,303,VALID,0,
2014-08-28, 00:12:05,VALID,1009.72,VALID,0,INVALID,136.73,VALID,0,VALID,24.493,VALID,303,VALID,0,
2014-08-28, 00:13:05,VALID,1009.69,VALID,0,INVALID,136.638,VALID,0,VALID,24.493,VALID,303,VALID,0,
2014-08-28, 00:14:05,VALID,1009.68,VALID,0,INVALID,136.547,VALID,0,VALID,24.493,VALID,303,VALID,0,
2014-08-28, 00:15:05,VALID,1009.65,VALID,0,INVALID,136.478,VALID,0,VALID,24.5125,VALID,303,VALID,0,
2014-08-28, 00:16:05,VALID,1009.64,VALID,0,INVALID,136.425,VALID,0,VALID,24.532,VALID,303,VALID,0,
2014-08-28, 00:17:05,VALID,1009.62,VALID,0,INVALID,136.356,VALID,0,VALID,24.532,VALID,303,VALID,0.279687,
2014-08-28, 00:18:05,VALID,1009.6,VALID,0,INVALID,136.257,VALID,0,VALID,24.532,VALID,303,VALID,0,
2014-08-28, 00:19:05,VALID,1009.58,VALID,0,INVALID,136.204,VALID,0,VALID,24.5515,VALID,303,VALID,0,
2014-08-28, 00:20:05,VALID,1009.58,VALID,0,INVALID,136.234,VALID,0,VALID,24.571,VALID,303,VALID,0,
2014-08-28, 00:21:05,VALID,1009.55,VALID,0,INVALID,136.219,VALID,0,VALID,24.571,VALID,303,VALID,0,
2014-08-28, 00:22:05,VALID,1009.51,VALID,0,INVALID,136.249,VALID,0,VALID,24.571,VALID,303,VALID,0,
2014-08-28, 00:23:05,VALID,1009.51,VALID,0,INVALID,136.287,VALID,0,VALID,24.571,VALID,303,VALID,0.0855469,
2014-08-28, 00:24:05,VALID,1009.47,VALID,0,INVALID,136.348,VALID,0,VALID,24.571,VALID,303,VALID,0.187891,
2014-08-28, 00:25:05,VALID,1009.46,VALID,0,INVALID,136.402,VALID,0,VALID,24.571,VALID,303,VALID,0.0929687,
2014-08-28, 00:26:05,VALID,1009.45,VALID,0,INVALID,136.478,VALID,0.112112,VALID,24.5905,VALID,303,VALID,0.194922,
2014-08-28, 00:27:05,VALID,1009.44,VALID,0,INVALID,136.524,VALID,0,VALID,24.571,VALID,303,VALID,0.323047,
2014-08-28, 00:28:05,VALID,1009.43,VALID,0,INVALID,136.608,VALID,0,VALID,24.5905,VALID,303,VALID,0.203906,
2014-08-28, 00:29:05,VALID,1009.46,VALID,0,INVALID,136.684,VALID,0,VALID,24.5905,VALID,303,VALID,0,
2014-08-28, 00:30:05,VALID,1009.49,VALID,0,INVALID,136.798,VALID,0,VALID,24.5905,VALID,303,VALID,0.274219,
2014-08-28, 00:31:05,VALID,1009.48,VALID,0,INVALID,137.004,VALID,0,VALID,24.5905,VALID,303,VALID,0.289453,
2014-08-28, 00:32:05,VALID,1009.51,VALID,0,INVALID,137.081,VALID,0.112112,VALID,24.5905,VALID,303,VALID,0.423438,
2014-08-28, 00:33:05,VALID,1009.53,VALID,0,INVALID,137.134,VALID,0,VALID,24.5905,VALID,303,VALID,0.453516,
2014-08-28, 00:34:05,VALID,1009.54,VALID,0,INVALID,137.21,VALID,0,VALID,24.571,VALID,303,VALID,0.417188,
2014-08-28, 00:35:05,VALID,1009.54,VALID,0,INVALID,137.302,VALID,0,VALID,24.5515,VALID,303,VALID,0.438672,
2014-08-28, 00:36:05,VALID,1009.56,VALID,0,INVALID,137.347,VALID,0,VALID,24.5515,VALID,303,VALID,0.298047,
2014-08-28, 00:37:05,VALID,1009.57,VALID,0,INVALID,137.408,VALID,0,VALID,24.532,VALID,303,VALID,0.333203,
2014-08-28, 00:38:05,VALID,1009.58,VALID,0,INVALID,137.431,VALID,0,VALID,24.5515,VALID,303,VALID,0.311328,
2014-08-28, 00:39:05,VALID,1009.57,VALID,0,INVALID,137.462,VALID,0,VALID,24.532,VALID,303,VALID,0.196094,
2014-08-28, 00:40:05,VALID,1009.52,VALID,0,INVALID,137.462,VALID,0,VALID,24.5125,VALID,303,VALID,0.459766,
2014-08-28, 00:41:05,VALID,1009.53,VALID,0,INVALID,137.5,VALID,0,VALID,24.5125,VALID,303,VALID,0.396094,
2014-08-28, 00:42:05,VALID,1009.52,VALID,0,INVALID,137.454,VALID,0,VALID,24.4911,VALID,303,VALID,0.239453,
2014-08-28, 00:43:05,VALID,1009.49,VALID,0,INVALID,137.447,VALID,0,VALID,24.5125,VALID,303,VALID,0.674609,
2014-08-28, 00:44:05,VALID,1009.51,VALID,0,INVALID,137.439,VALID,0,VALID,24.493,VALID,303,VALID,0.423047,
2014-08-28, 00:45:05,VALID,1009.48,VALID,0,INVALID,137.424,VALID,0,VALID,24.493,VALID,303,VALID,0.746484,
2014-08-28, 00:46:05,VALID,1009.51,VALID,0,INVALID,137.447,VALID,0,VALID,24.493,VALID,303,VALID,0.807813,
2014-08-28, 00:47:04,VALID,1009.51,VALID,0,INVALID,137.469,VALID,0,VALID,24.5125,VALID,304,VALID,0.491016,
2014-08-28, 00:48:04,VALID,1009.51,VALID,0,INVALID,137.454,VALID,0,VALID,24.5125,VALID,304,VALID,0.493359,
2014-08-28, 00:49:04,VALID,1009.53,VALID,0,INVALID,137.462,VALID,0,VALID,24.532,VALID,304,VALID,0.671875,
2014-08-28, 00:50:04,VALID,1009.55,VALID,0,INVALID,137.5,VALID,0,VALID,24.5338,VALID,304,VALID,0.448438,
2014-08-28, 00:51:04,VALID,1009.54,VALID,0,INVALID,137.538,VALID,0,VALID,24.532,VALID,304,VALID,0.541797,
2014-08-28, 00:52:04,VALID,1009.52,VALID,0,INVALID,137.538,VALID,0,VALID,24.532,VALID,304,VALID,0.380859,
2014-08-28, 00:53:04,VALID,1009.54,VALID,0,INVALID,137.53,VALID,0,VALID,24.5515,VALID,304,VALID,0.539844,
2014-08-28, 00:54:04,VALID,1009.55,VALID,0,INVALID,137.584,VALID,0,VALID,24.571,VALID,304,VALID,0.352734,
2014-08-28, 00:55:04,VALID,1009.51,VALID,0,INVALID,137.63,VALID,0,VALID,24.5691,VALID,304,VALID,0.544531,
2014-08-28, 00:56:04,VALID,1009.5,VALID,0,INVALID,137.645,VALID,0,VALID,24.5905,VALID,304,VALID,0.409375,
2014-08-28, 00:57:04,VALID,1009.5,VALID,0,INVALID,137.645,VALID,0,VALID,24.6099,VALID,304,VALID,0.730859,
2014-08-28, 00:58:04,VALID,1009.48,VALID,0,INVALID,137.668,VALID,0,VALID,24.6313,VALID,304,VALID,0.335938,
2014-08-28, 00:59:04,VALID,1009.47,VALID,0,INVALID,137.675,VALID,0,VALID,24.6099,VALID,304,VALID,0.534766,
2014-08-28, 01:00:04,VALID,1009.46,VALID,0,INVALID,137.729,VALID,0,VALID,24.6099,VALID,304,VALID,0.4875,
2014-08-28, 01:01:04,VALID,1009.43,VALID,0,INVALID,137.736,VALID,0.112112,VALID,24.6294,VALID,304,VALID,0.448438,
2014-08-28, 01:02:04,VALID,1009.45,VALID,0,INVALID,137.767,VALID,0,VALID,24.6276,VALID,304,VALID,0.497266,
2014-08-28, 01:03:04,VALID,1009.42,VALID,0,INVALID,137.782,VALID,0,VALID,24.6489,VALID,304,VALID,0.320313,
2014-08-28, 01:04:04,VALID,1009.39,VALID,0,INVALID,137.752,VALID,0,VALID,24.6879,VALID,341,VALID,1.07617,
2014-08-28, 01:05:04,VALID,1009.38,VALID,0,INVALID,137.698,VALID,0,VALID,24.6879,VALID,330,VALID,0.525391,
2014-08-28, 01:06:04,VALID,1009.35,VALID,0,INVALID,137.721,VALID,0,VALID,24.686,VALID,330,VALID,0.304688,
2014-08-28, 01:07:04,VALID,1009.35,VALID,0,INVALID,137.729,VALID,0,VALID,24.7269,VALID,330,VALID,0.425781,
2014-08-28, 01:08:04,VALID,1009.37,VALID,0,INVALID,137.752,VALID,0,VALID,24.7464,VALID,330,VALID,0.426172,
2014-08-28, 01:09:04,VALID,1009.34,VALID,0,INVALID,137.752,VALID,0,VALID,24.7464,VALID,330,VALID,0.820313,
2014-08-28, 01:10:04,VALID,1009.34,VALID,0,INVALID,137.782,VALID,0,VALID,24.7854,VALID,330,VALID,0.312891,
2014-08-28, 01:11:04,VALID,1009.33,VALID,0,INVALID,137.767,VALID,0,VALID,24.7854,VALID,330,VALID,0.462109,
2014-08-28, 01:12:04,VALID,1009.35,VALID,0,INVALID,137.706,VALID,0,VALID,24.7854,VALID,330,VALID,0.739453,
2014-08-28, 01:13:04,VALID,1009.37,VALID,0,INVALID,137.721,VALID,0,VALID,24.8244,VALID,330,VALID,0.455859,
2014-08-28, 01:14:04,VALID,1009.37,VALID,0,INVALID,137.691,VALID,0,VALID,24.8457,VALID,330,VALID,0.529297,
2014-08-28, 01:15:04,VALID,1009.38,VALID,0,INVALID,137.546,VALID,0,VALID,24.8244,VALID,331,VALID,0.682031,
2014-08-28, 01:16:04,VALID,1009.39,VALID,0,INVALID,137.386,VALID,0,VALID,24.8438,VALID,330,VALID,0.712109,
2014-08-28, 01:17:04,VALID,1009.37,VALID,0,INVALID,137.164,VALID,0,VALID,24.8633,VALID,331,VALID,1,
2014-08-28, 01:18:04,VALID,1009.37,VALID,0,INVALID,137.103,VALID,0,VALID,24.8633,VALID,331,VALID,0.478125,
2014-08-28, 01:19:04,VALID,1009.38,VALID,0,INVALID,136.402,VALID,0,VALID,24.8633,VALID,330,VALID,1.09141,
2014-08-28, 01:20:04,VALID,1009.39,VALID,0,INVALID,136.364,VALID,0,VALID,24.8615,VALID,330,VALID,0.391797,
2014-08-28, 01:21:04,VALID,1009.4,VALID,0,INVALID,136.051,VALID,0,VALID,24.8828,VALID,330,VALID,0.508594,
2014-08-28, 01:22:04,VALID,1009.4,VALID,0,INVALID,135.815,VALID,0,VALID,24.8828,VALID,330,VALID,0.472266,
2014-08-28, 01:23:04,VALID,1009.4,VALID,0,INVALID,135.22,VALID,0,VALID,24.9023,VALID,330,VALID,0.460156,
2014-08-28, 01:24:04,VALID,1009.39,VALID,0,INVALID,135.388,VALID,0,VALID,24.9218,VALID,330,VALID,0.356641,
2014-08-28, 01:25:04,VALID,1009.38,VALID,0,INVALID,134.961,VALID,0,VALID,24.9218,VALID,330,VALID,0.306641,
2014-08-28, 01:26:04,VALID,1009.41,VALID,0,INVALID,133.405,VALID,0,VALID,24.9218,VALID,330,VALID,0.602734,
2014-08-28, 01:27:04,VALID,1009.41,VALID,0,INVALID,132.04,VALID,0,VALID,24.9023,VALID,330,VALID,0.622266,
2014-08-28, 01:28:04,VALID,1009.4,VALID,0,INVALID,132.726,VALID,0,VALID,24.9218,VALID,330,VALID,0.0449219,
2014-08-28, 01:29:04,VALID,1009.38,VALID,0,INVALID,132.368,VALID,0,VALID,24.9413,VALID,330,VALID,0.341797,
2014-08-28, 01:30:04,VALID,1009.39,VALID,0,INVALID,131.498,VALID,0,VALID,24.9004,VALID,330,VALID,0.379297,
2014-08-28, 01:31:04,VALID,1009.36,VALID,0,INVALID,128.883,VALID,0,VALID,24.9004,VALID,331,VALID,0.516016,
2014-08-28, 01:32:04,VALID,1009.36,VALID,0,INVALID,126.397,VALID,0,VALID,24.8828,VALID,330,VALID,0.736719,
2014-08-28, 01:33:04,VALID,1009.35,VALID,0,INVALID,121.547,VALID,0,VALID,24.8633,VALID,330,VALID,0.51875,
2014-08-28, 01:34:04,VALID,1009.36,VALID,0,INVALID,121.143,VALID,0,VALID,24.8633,VALID,330,VALID,0.138672,
2014-08-28, 01:35:04,VALID,1009.35,VALID,0,INVALID,121.234,VALID,0,VALID,24.8633,VALID,330,VALID,0.350781,
2014-08-28, 01:36:04,VALID,1009.34,VALID,0,INVALID,119.244,VALID,0,VALID,24.8438,VALID,330,VALID,0.623438,
2014-08-28, 01:37:04,VALID,1009.31,VALID,0,INVALID,118.954,VALID,0,VALID,24.8244,VALID,330,VALID,0.886328,
2014-08-28, 01:38:04,VALID,1009.27,VALID,0,INVALID,116.392,VALID,0,VALID,24.7835,VALID,330,VALID,0.855469,
2014-08-28, 01:39:04,VALID,1009.25,VALID,0,VALID,104,VALID,0,VALID,24.7464,VALID,344,VALID,1.68047,
2014-08-28, 01:40:04,VALID,1009.22,VALID,0,VALID,103.825,VALID,0,VALID,24.725,VALID,342,VALID,0.971484,
2014-08-28, 01:41:04,VALID,1009.21,VALID,0,VALID,104,VALID,0,VALID,24.7055,VALID,343,VALID,0.809375,
2014-08-28, 01:42:04,VALID,1009.23,VALID,0,VALID,104,VALID,0,VALID,24.7074,VALID,343,VALID,0.663672,
2014-08-28, 01:43:04,VALID,1009.23,VALID,0,VALID,104,VALID,0,VALID,24.6471,VALID,343,VALID,0.317969,
2014-08-28, 01:44:04,VALID,1009.2,VALID,0,VALID,104,VALID,0,VALID,24.6276,VALID,343,VALID,0.173828,
2014-08-28, 01:45:04,VALID,1009.21,VALID,0,VALID,104,VALID,0,VALID,24.5886,VALID,343,VALID,0.742188,
2014-08-28, 01:46:04,VALID,1009.22,VALID,0,VALID,104,VALID,0,VALID,24.5496,VALID,342,VALID,0.125781,
2014-08-28, 01:47:04,VALID,1009.22,VALID,0,VALID,104,VALID,0,VALID,24.5496,VALID,342,VALID,0.00195313,
2014-08-28, 01:48:04,VALID,1009.24,VALID,0,VALID,104,VALID,0.112112,VALID,24.5106,VALID,342,VALID,0.856641,
2014-08-28, 01:49:04,VALID,1009.28,VALID,0,INVALID,110.932,VALID,0,VALID,24.4911,VALID,342,VALID,0.380859,
2014-08-28, 01:50:04,VALID,1009.28,VALID,0,INVALID,112.937,VALID,0,VALID,24.493,VALID,342,VALID,0.348047,
2014-08-28, 01:51:04,VALID,1009.28,VALID,0,INVALID,115.286,VALID,0,VALID,24.4735,VALID,342,VALID,0.248828,
2014-08-28, 01:52:04,VALID,1009.26,VALID,0,INVALID,118.626,VALID,0,VALID,24.4735,VALID,342,VALID,0.649609,
2014-08-28, 01:53:04,VALID,1009.28,VALID,0,INVALID,118.985,VALID,0,VALID,24.415,VALID,343,VALID,1.025,
2014-08-28, 01:54:04,VALID,1009.28,VALID,0,INVALID,120.578,VALID,0,VALID,24.415,VALID,343,VALID,1.02969,
2014-08-28, 01:55:04,VALID,1009.25,VALID,0,INVALID,121.875,VALID,0,VALID,24.3761,VALID,343,VALID,0.511328,
2014-08-28, 01:56:04,VALID,1009.24,VALID,0,INVALID,121.882,VALID,0,VALID,24.3547,VALID,343,VALID,0.383984,
2014-08-28, 01:57:04,VALID,1009.26,VALID,0,INVALID,121.738,VALID,0,VALID,24.3371,VALID,343,VALID,0.329297,
2014-08-28, 01:58:04,VALID,1009.25,VALID,0,INVALID,122.012,VALID,0,VALID,24.3158,VALID,343,VALID,0.452734,
2014-08-28, 01:59:04,VALID,1009.23,VALID,0,INVALID,122.721,VALID,0,VALID,24.3158,VALID,343,VALID,0.637109,
2014-08-28, 02:00:04,VALID,1009.25,VALID,0,INVALID,119.61,VALID,0.112112,VALID,24.2981,VALID,343,VALID,0.341406,
2014-08-28, 02:01:04,VALID,1009.22,VALID,0,INVALID,121.516,VALID,0,VALID,24.2768,VALID,343,VALID,0.545703,
2014-08-28, 02:02:04,VALID,1009.2,VALID,0,INVALID,120.853,VALID,0,VALID,24.2786,VALID,343,VALID,0.639453,
2014-08-28, 02:03:04,VALID,1009.17,VALID,0,INVALID,119.663,VALID,0,VALID,24.2591,VALID,343,VALID,0.359375,
2014-08-28, 02:04:04,VALID,1009.17,VALID,0,INVALID,121.15,VALID,0,VALID,24.2396,VALID,343,VALID,0.0375,
2014-08-28, 02:05:04,VALID,1009.15,VALID,0,INVALID,122.653,VALID,0,VALID,24.2183,VALID,343,VALID,0.451562,
2014-08-28, 02:06:04,VALID,1009.16,VALID,0,INVALID,123.011,VALID,0,VALID,24.2202,VALID,343,VALID,0.0910156,
2014-08-28, 02:07:04,VALID,1009.18,VALID,0,INVALID,124.673,VALID,0.112112,VALID,24.2007,VALID,343,VALID,0.134766,
2014-08-28, 02:08:04,VALID,1009.19,VALID,0,INVALID,124.559,VALID,0,VALID,24.1599,VALID,343,VALID,0.139062,
2014-08-28, 02:09:04,VALID,1009.18,VALID,0,INVALID,124.025,VALID,0,VALID,24.1617,VALID,343,VALID,0.373047,
2014-08-28, 02:10:04,VALID,1009.18,VALID,0,INVALID,122.317,VALID,0,VALID,24.1227,VALID,343,VALID,0.297656,
2014-08-28, 02:11:04,VALID,1009.15,VALID,0,INVALID,121.707,VALID,0,VALID,24.0819,VALID,343,VALID,0.0472656,
2014-08-28, 02:12:04,VALID,1009.17,VALID,0,INVALID,121.143,VALID,0,VALID,24.0819,VALID,343,VALID,0,
2014-08-28, 02:13:04,VALID,1009.18,VALID,0,INVALID,121.15,VALID,0,VALID,24.0643,VALID,343,VALID,0,
2014-08-28, 02:14:04,VALID,1009.16,VALID,0,INVALID,120.952,VALID,0,VALID,24.0429,VALID,343,VALID,0.292188,
2014-08-28, 02:15:04,VALID,1009.15,VALID,0,INVALID,122.965,VALID,0,VALID,24.0643,VALID,343,VALID,0.291797,
2014-08-28, 02:16:04,VALID,1009.11,VALID,0,INVALID,126.267,VALID,0,VALID,24.0235,VALID,343,VALID,0.219531,
2014-08-28, 02:17:04,VALID,1009.08,VALID,0,INVALID,127.525,VALID,0,VALID,24.0643,VALID,343,VALID,0.138281,
2014-08-28, 02:18:04,VALID,1009.06,VALID,0,INVALID,129.18,VALID,0,VALID,24.0253,VALID,343,VALID,0.316016,
2014-08-28, 02:19:04,VALID,1009.05,VALID,0,INVALID,130.233,VALID,0,VALID,24.004,VALID,343,VALID,0.382031,
2014-08-28, 02:20:04,VALID,1009.03,VALID,0,INVALID,130.827,VALID,0,VALID,24.0058,VALID,343,VALID,0.00195313,
2014-08-28, 02:21:04,VALID,1009.02,VALID,0,INVALID,131.338,VALID,0,VALID,23.9863,VALID,343,VALID,0.651172,
2014-08-28, 02:22:04,VALID,1009.02,VALID,0,INVALID,132.863,VALID,0.112112,VALID,23.9668,VALID,343,VALID,0.698438,
2014-08-28, 02:23:04,VALID,1009.04,VALID,0,INVALID,132.894,VALID,0,VALID,23.926,VALID,343,VALID,0.541016,
2014-08-28, 02:24:04,VALID,1009.05,VALID,0,INVALID,133.069,VALID,0,VALID,23.8889,VALID,343,VALID,0,
2014-08-28, 02:25:04,VALID,1009.02,VALID,0,INVALID,133.336,VALID,0,VALID,23.8694,VALID,343,VALID,0,
2014-08-28, 02:26:04,VALID,1009.05,VALID,0,INVALID,134.671,VALID,0,VALID,23.8286,VALID,343,VALID,0.187109,
2014-08-28, 02:27:04,VALID,1009.06,VALID,0,INVALID,135.845,VALID,0,VALID,23.8499,VALID,343,VALID,0.320313,
2014-08-28, 02:28:04,VALID,1009.08,VALID,0,INVALID,136.082,VALID,0,VALID,23.8694,VALID,343,VALID,0.361719,
2014-08-28, 02:29:04,VALID,1009.06,VALID,0,INVALID,136.455,VALID,0,VALID,23.8286,VALID,343,VALID,0,
2014-08-28, 02:30:04,VALID,1009.05,VALID,0,INVALID,136.76,VALID,0,VALID,23.8676,VALID,343,VALID,0.215625,
2014-08-28, 02:31:04,VALID,1009.02,VALID,0,INVALID,136.821,VALID,0,VALID,23.8889,VALID,343,VALID,0.0285156,
2014-08-28, 02:32:04,VALID,1009,VALID,0,INVALID,137.065,VALID,0,VALID,23.8676,VALID,343,VALID,0.075,
2014-08-28, 02:33:04,VALID,1008.98,VALID,0,INVALID,136.974,VALID,0,VALID,23.8694,VALID,343,VALID,0.065625,
2014-08-28, 02:34:04,VALID,1008.97,VALID,0,INVALID,136.867,VALID,0.112112,VALID,23.8694,VALID,343,VALID,0,
2014-08-28, 02:35:04,VALID,1008.97,VALID,0,INVALID,136.798,VALID,0,VALID,23.8694,VALID,343,VALID,0,
2014-08-28, 02:36:04,VALID,1008.97,VALID,0,INVALID,136.981,VALID,0,VALID,23.8481,VALID,343,VALID,0.00820312,
2014-08-28, 02:37:04,VALID,1008.99,VALID,0,INVALID,137.271,VALID,0,VALID,23.8481,VALID,343,VALID,0.574609,
2014-08-28, 02:38:04,VALID,1009.01,VALID,0,INVALID,137.53,VALID,0,VALID,23.9084,VALID,343,VALID,0.271484,
2014-08-28, 02:39:04,VALID,1008.99,VALID,0,INVALID,137.492,VALID,0,VALID,23.9278,VALID,343,VALID,0.105469,
2014-08-28, 02:40:04,VALID,1008.97,VALID,0,INVALID,137.401,VALID,0,VALID,23.9278,VALID,343,VALID,0.691016,
2014-08-28, 02:41:04,VALID,1008.97,VALID,0,INVALID,137.149,VALID,0,VALID,23.8871,VALID,343,VALID,0.743359,
2014-08-28, 02:42:04,VALID,1008.93,VALID,0,INVALID,137.081,VALID,0,VALID,23.8694,VALID,343,VALID,0.322656,
2014-08-28, 02:43:04,VALID,1008.92,VALID,0,INVALID,137.18,VALID,0,VALID,23.8694,VALID,343,VALID,0.309766,
2014-08-28, 02:44:04,VALID,1008.93,VALID,0,INVALID,137.401,VALID,0,VALID,23.8694,VALID,343,VALID,0.0015625,
2014-08-28, 02:45:04,VALID,1008.92,VALID,0,INVALID,137.447,VALID,0,VALID,23.8499,VALID,343,VALID,0.172656,
2014-08-28, 02:46:04,VALID,1008.9,VALID,0,INVALID,137.53,VALID,0,VALID,23.8499,VALID,343,VALID,0.243359,
2014-08-28, 02:47:04,VALID,1008.9,VALID,0,INVALID,137.538,VALID,0.112112,VALID,23.8286,VALID,343,VALID,0.290234,
2014-08-28, 02:48:04,VALID,1008.9,VALID,0,INVALID,137.553,VALID,0,VALID,23.8091,VALID,343,VALID,0.274609,
2014-08-28, 02:49:04,VALID,1008.89,VALID,0,INVALID,137.508,VALID,0,VALID,23.8304,VALID,343,VALID,0.148047,
2014-08-28, 02:50:04,VALID,1008.85,VALID,0,INVALID,137.431,VALID,0,VALID,23.8109,VALID,343,VALID,0.530859,
2014-08-28, 02:51:04,VALID,1008.85,VALID,0,INVALID,137.248,VALID,0,VALID,23.7914,VALID,343,VALID,0.00195313,
2014-08-28, 02:52:04,VALID,1008.87,VALID,0,INVALID,137.264,VALID,0,VALID,23.7896,VALID,343,VALID,0,
2014-08-28, 02:53:04,VALID,1008.88,VALID,0,INVALID,137.225,VALID,0,VALID,23.7914,VALID,343,VALID,0.291797,
2014-08-28, 02:54:04,VALID,1008.88,VALID,0,INVALID,137.088,VALID,0,VALID,23.772,VALID,343,VALID,0.0558594,
2014-08-28, 02:55:04,VALID,1008.89,VALID,0,INVALID,136.951,VALID,0,VALID,23.7507,VALID,343,VALID,0.190234,
2014-08-28, 02:56:04,VALID,1008.91,VALID,0,INVALID,136.898,VALID,0,VALID,23.7525,VALID,343,VALID,0,
2014-08-28, 02:57:04,VALID,1008.92,VALID,0,INVALID,136.875,VALID,0,VALID,23.733,VALID,343,VALID,0.059375,
2014-08-28, 02:58:04,VALID,1008.93,VALID,0,INVALID,136.898,VALID,0,VALID,23.7135,VALID,343,VALID,0,
2014-08-28, 02:59:04,VALID,1008.91,VALID,0,INVALID,136.966,VALID,0,VALID,23.6922,VALID,343,VALID,0,
2014-08-28, 03:00:04,VALID,1008.92,VALID,0,INVALID,137.126,VALID,0,VALID,23.7135,VALID,343,VALID,0,
2014-08-28, 03:01:04,VALID,1008.89,VALID,0,INVALID,137.241,VALID,0,VALID,23.6922,VALID,343,VALID,0,
2014-08-28, 03:02:04,VALID,1008.88,VALID,0,INVALID,137.317,VALID,0,VALID,23.6727,VALID,343,VALID,0.187109,
2014-08-28, 03:03:04,VALID,1008.85,VALID,0,INVALID,137.355,VALID,0.112112,VALID,23.6727,VALID,343,VALID,0.493359,
2014-08-28, 03:04:04,VALID,1008.82,VALID,0,INVALID,137.286,VALID,0,VALID,23.694,VALID,343,VALID,0.025,
2014-08-28, 03:05:04,VALID,1008.82,VALID,0,INVALID,137.256,VALID,0,VALID,23.694,VALID,343,VALID,0.0851562,
2014-08-28, 03:06:04,VALID,1008.82,VALID,0,INVALID,137.264,VALID,0,VALID,23.694,VALID,343,VALID,0.144922,
2014-08-28, 03:07:04,VALID,1008.81,VALID,0,INVALID,137.264,VALID,0,VALID,23.6745,VALID,343,VALID,0.0160156,
2014-08-28, 03:08:04,VALID,1008.8,VALID,0,INVALID,137.286,VALID,0,VALID,23.694,VALID,343,VALID,0.136328,
2014-08-28, 03:09:04,VALID,1008.79,VALID,0,INVALID,137.294,VALID,0,VALID,23.6745,VALID,343,VALID,0,
2014-08-28, 03:10:04,VALID,1008.79,VALID,0,INVALID,137.355,VALID,0,VALID,23.6745,VALID,343,VALID,0,
2014-08-28, 03:11:04,VALID,1008.81,VALID,0,INVALID,137.332,VALID,0.112112,VALID,23.6338,VALID,343,VALID,0,
2014-08-28, 03:12:04,VALID,1008.8,VALID,0,INVALID,137.469,VALID,0,VALID,23.655,VALID,343,VALID,0,
2014-08-28, 03:13:04,VALID,1008.77,VALID,0,INVALID,137.485,VALID,0,VALID,23.655,VALID,343,VALID,0,
2014-08-28, 03:14:04,VALID,1008.76,VALID,0,INVALID,137.477,VALID,0,VALID,23.6338,VALID,343,VALID,0.260156,
2014-08-28, 03:15:04,VALID,1008.74,VALID,0,INVALID,137.439,VALID,0,VALID,23.6356,VALID,343,VALID,0.350781,
2014-08-28, 03:16:04,VALID,1008.74,VALID,0,INVALID,137.347,VALID,0,VALID,23.5948,VALID,343,VALID,0.280859,
2014-08-28, 03:17:04,VALID,1008.74,VALID,0,INVALID,137.248,VALID,0,VALID,23.6161,VALID,343,VALID,0.176953,
2014-08-28, 03:18:04,VALID,1008.74,VALID,0,INVALID,137.187,VALID,0,VALID,23.6143,VALID,343,VALID,0.00195313,
2014-08-28, 03:19:04,VALID,1008.76,VALID,0,INVALID,137.187,VALID,0,VALID,23.6161,VALID,343,VALID,0,
2014-08-28, 03:20:04,VALID,1008.78,VALID,0,INVALID,137.203,VALID,0,VALID,23.6161,VALID,343,VALID,0,
2014-08-28, 03:21:04,VALID,1008.78,VALID,0,INVALID,137.279,VALID,0,VALID,23.6161,VALID,343,VALID,0,
2014-08-28, 03:22:04,VALID,1008.77,VALID,0,INVALID,137.386,VALID,0,VALID,23.6161,VALID,343,VALID,0.420703,
2014-08-28, 03:23:04,VALID,1008.79,VALID,0,INVALID,137.469,VALID,0,VALID,23.5966,VALID,343,VALID,0.504687,
2014-08-28, 03:24:04,VALID,1008.79,VALID,0,INVALID,137.454,VALID,0,VALID,23.5966,VALID,343,VALID,0.602734,
2014-08-28, 03:25:04,VALID,1008.8,VALID,0,INVALID,137.393,VALID,0,VALID,23.5576,VALID,343,VALID,0.569141,
2014-08-28, 03:26:04,VALID,1008.81,VALID,0,INVALID,137.386,VALID,0,VALID,23.5381,VALID,343,VALID,0.703516,
2014-08-28, 03:27:04,VALID,1008.8,VALID,0,INVALID,137.317,VALID,0,VALID,23.5381,VALID,343,VALID,0.365234,
2014-08-28, 03:28:04,VALID,1008.81,VALID,0,INVALID,137.347,VALID,0,VALID,23.5186,VALID,343,VALID,0.369141,
2014-08-28, 03:29:04,VALID,1008.82,VALID,0,INVALID,137.401,VALID,0,VALID,23.4992,VALID,343,VALID,0.223828,
2014-08-28, 03:30:04,VALID,1008.83,VALID,0,INVALID,137.378,VALID,0,VALID,23.4992,VALID,343,VALID,0.110156,
2014-08-28, 03:31:04,VALID,1008.86,VALID,0,INVALID,137.363,VALID,0.112112,VALID,23.4602,VALID,343,VALID,0,
2014-08-28, 03:32:04,VALID,1008.84,VALID,0,INVALID,137.386,VALID,0.112112,VALID,23.4389,VALID,343,VALID,0,
2014-08-28, 03:33:04,VALID,1008.88,VALID,0,INVALID,137.492,VALID,0,VALID,23.4407,VALID,343,VALID,0,
2014-08-28, 03:34:04,VALID,1008.87,VALID,0,INVALID,137.614,VALID,0,VALID,23.4194,VALID,343,VALID,0,
2014-08-28, 03:35:04,VALID,1008.84,VALID,0,INVALID,137.645,VALID,0,VALID,23.4407,VALID,343,VALID,0.185937,
2014-08-28, 03:36:04,VALID,1008.82,VALID,0,INVALID,137.637,VALID,0.112112,VALID,23.4797,VALID,343,VALID,0.416016,
2014-08-28, 03:37:04,VALID,1008.81,VALID,0,INVALID,137.607,VALID,0,VALID,23.4602,VALID,343,VALID,0.494141,
2014-08-28, 03:38:04,VALID,1008.79,VALID,0,INVALID,137.668,VALID,0,VALID,23.4797,VALID,343,VALID,0.932031,
2014-08-28, 03:39:04,VALID,1008.79,VALID,0,INVALID,137.584,VALID,0,VALID,23.4797,VALID,343,VALID,0.912891,
2014-08-28, 03:40:04,VALID,1008.78,VALID,0,INVALID,137.584,VALID,0,VALID,23.4584,VALID,343,VALID,0.815625,
2014-08-28, 03:41:04,VALID,1008.81,VALID,0,INVALID,137.576,VALID,0,VALID,23.4584,VALID,343,VALID,0.504687,
2014-08-28, 03:42:04,VALID,1008.8,VALID,0,INVALID,137.538,VALID,0.112112,VALID,23.4797,VALID,343,VALID,0.426953,